Regional Weather Roundup
Issued by NWS

Home | Current Version | Previous Version | Graphics & Text | Print | Product List | Glossary On
Versions: 1 2 3 4 5 6 7 8 9 10 11 12 13 14 15 16 17 18 19 20 21 22 23 24 25 26 27 28 29 30 31 32 33 34 35 36 37 38 39 40 41 42 43 44 45 46 47 48 49 50
000
ASUS43 KIND 012059
RWRIN

WEATHER ROUNDUP FOR INDIANA
NATIONAL WEATHER SERVICE INDIANAPOLIS IN
400 PM EST THU DEC 01 2016

NOTE: "FAIR" INDICATES FEW OR NO CLOUDS BELOW 12,000 FEET WITH NO
SIGNIFICANT WEATHER AND/OR OBSTRUCTIONS TO VISIBILITY.

* - STATION DOES NOT REPORT WEATHER SUCH AS PRECIPITATION OR FOG.

+ - STATION NOT QUALITY CONTROLLED BY THE NATIONAL WEATHER SERVICE.
    USE DATA WITH CAUTION...ESPECIALLY DEWPOINT AND RELATIVE
    HUMIDITY OBSERVATIONS.

INZ001>003-010>013-019-020-012200-
NORTHWEST INDIANA

CITY           SKY/WX    TMP DP  RH WIND       PRES   REMARKS
GARY /AIRPORT/ CLOUDY    41  34  75 W16G32    29.90R
MONTICELLO +   CLOUDY    39  30  68 W16       29.93R

$$

LMZ046-743>745-012200-
SOUTHERN LAKE MICHIGAN

STATION/POSITION TIME  TEMP    WIND        PRES    WAVE
                       AIR SEA DIR/SP/G            HT
                 (UTC) (F)     (DEG/KT/KT) (MB)    (FT)
BURNS HARBOR     2040   42     260/ 22/ 26 1012.2R
MICHIGAN CITY    2030   41     240/ 24/ 28   N/A

$$

INZ004-005-014>016-021>024-012200-
NORTH CENTRAL INDIANA

CITY           SKY/WX    TMP DP  RH WIND       PRES   REMARKS
ELKHART        LGT RAIN  39  32  75 W9G20     29.86R
GOSHEN         CLOUDY    39  32  76 W15G26    29.87R
PERU/GRISSOM   CLOUDY    39  32  75 W15       29.91R
SOUTH BEND     CLOUDY    39  33  79 SW14      29.87R
WARSAW +       DRIZZLE   37  32  81 W12G18    29.89R

$$

INZ006>009-017-018-025>027-012200-
NORTHEAST INDIANA

CITY           SKY/WX    TMP DP  RH WIND       PRES   REMARKS
ANGOLA *+      CLOUDY    39  34  81 W13       29.84R
FORT WAYNE     CLOUDY    40  31  70 W16       29.90R
KENDALLVILLE + CLOUDY    39  32  76 W17G25    29.85R

$$

INZ028-029-035-036-043>045-051>053-012200-
WEST CENTRAL INDIANA

CITY           SKY/WX    TMP DP  RH WIND       PRES   REMARKS
CRAWFORDSVL +  CLOUDY    36  31  80 W12       29.96S
GREENCASTLE +  CLOUDY    36  32  87 SW8       29.99R
LAFAYETTE      CLOUDY    39  30  70 W10       29.96R
TERRE HAUTE    CLOUDY    38  29  70 W12       30.01R

$$

INZ030>032-037>040-046>048-054>057-064-065-012200-
CENTRAL INDIANA

CITY           SKY/WX    TMP DP  RH WIND       PRES   REMARKS
ANDERSON       CLOUDY    37  28  70 SW12G17   29.96R
COLUMBUS       CLOUDY    39  30  70 W14       29.99R
GREENWOOD *+   CLOUDY    38  30  73 W9        29.99R
INDIANAPOLIS   CLOUDY    38  29  70 SW14      29.98R
-EAGLE CREEK   CLOUDY    38  29  70 SW10      29.97R
KOKOMO +       CLOUDY    39  31  72 W17       29.94R
SHELBYVILLE    CLOUDY    40  28  62 W16       29.97R

$$

INZ033-034-041-042-049-050-058-059-012200-
EAST CENTRAL INDIANA

CITY           SKY/WX    TMP DP  RH WIND       PRES   REMARKS
MUNCIE         CLOUDY    39  30  70 W13       29.94R

$$

INZ060-061-067>069-081>083-085>088-012200-
SOUTHWEST INDIANA

CITY           SKY/WX    TMP DP  RH WIND       PRES   REMARKS
EVANSVILLE     MOSUNNY   47  29  49 W12       30.04R
HUNTINGBURG *+ PTSUNNY   45  31  58 W9        30.03R

$$

INZ062-063-066-070>080-084-089>092-012200-
SOUTH CENTRAL AND SOUTHEAST INDIANA

CITY           SKY/WX    TMP DP  RH WIND       PRES   REMARKS
BLOOMINGTON    CLOUDY    39  27  62 W13       29.99R
MADISON *+     SUNNY     45  27  49 SW13      30.00R
SEYMOUR +      SUNNY     45  28  53 W16       29.99R

$$





USA.gov is the U.S. government's official web portal to all federal, state and local government web resources and services.